Mexico City Airport, Mexico

6:15 PM CST on March 26, 2017 (GMT -0600)
Lic Benito Juarez International

Weather History for MMMX - February, 2011

Change the Weather History Date:

Friday, February 4, 2011

  Actual Average Record
Temperature  
Mean Temperature 62 °F -  
Max Temperature 69 °F 73 °F 78 °F (1999)
Min Temperature 55 °F 43 °F 32 °F (1998)
Degree Days  
Heating Degree Days 3    
Growing Degree Days 12 (Base 50)    
Moisture  
Dew Point 40 °F    
Average Humidity 48    
Maximum Humidity 63    
Minimum Humidity 28    
Precipitation  
Precipitation 0.00 in - - ()
Sea Level Pressure  
Sea Level Pressure 30.10 in    
Wind  
Wind Speed 14 mph ()    
Max Wind Speed 21 mph    
Max Gust Speed -    
Visibility 12.6 miles    
Events      
Averages and records for this station are not official NWS values.
T = Trace of Precipitation, MM = Missing Value Source: Averaged Metar Reports

Daily Weather History Graph

Daily Weather History Graph

Search for Another Location

Airport or City:

Trip Planner

Search our weather history database for the weather conditions in past years. The results will help you decide how hot, cold, wet, or windy it might be!

Date:

Astronomy

Feb. 04, 2011 Rise Set
Actual Time 7:10 AM CST 6:30 PM CST
Civil Twilight 6:47 AM CST 6:53 PM CST
Nautical Twilight 6:21 AM CST 7:19 PM CST
Astronomical Twilight 5:55 AM CST 7:45 PM CST
Moon 7:57 AM CST (2/4) 8:01 PM CST (2/4)
Length of Visible Light 12h 06m
Length of Day
11h 20m
Waxing Crescent, 3% of the Moon is Illuminated
Feb 4
Waxing Crescent
Feb 11
First Quarter
Feb 18
Full
Feb 24
Last Quarter
Mar 4
New

Hourly Weather History & Observations

Time (CST) Temp. Dew Point Humidity Pressure Visibility Wind Dir Wind Speed Gust Speed Precip Events Conditions
12:48 AM 59.0 °F 42.8 °F 55% 30.25 in 12.0 mi ESE 15.0 mph - N/A   Scattered Clouds
1:44 AM 57.2 °F 44.6 °F 63% 30.23 in 12.0 mi ESE 13.8 mph - N/A   Scattered Clouds
2:49 AM 55.4 °F 42.8 °F 63% 29.75 in 12.0 mi ESE 11.5 mph - N/A   Scattered Clouds
3:46 AM 55.4 °F 42.8 °F 63% 30.21 in 12.0 mi ESE 12.7 mph - N/A   Scattered Clouds
4:45 AM 55.4 °F 42.8 °F 63% 30.21 in 12.0 mi ESE 10.4 mph - N/A   Partly Cloudy
5:53 AM 55.4 °F 41.0 °F 58% 29.80 in 12.0 mi ESE 12.7 mph - N/A   Partly Cloudy
6:20 AM 55.4 °F 41.0 °F 58% 30.22 in 12.0 mi ESE 13.8 mph - N/A   Partly Cloudy
6:47 AM 55.4 °F 41.0 °F 58% 30.22 in 12.0 mi SE 16.1 mph - N/A   Scattered Clouds
7:20 AM 55.4 °F 41.0 °F 58% 30.22 in 12.0 mi SE 16.1 mph - N/A   Scattered Clouds
7:45 AM 55.4 °F 41.0 °F 58% 30.22 in 12.0 mi SSE 13.8 mph - N/A   Scattered Clouds
8:21 AM 55.4 °F 41.0 °F 58% 30.24 in 12.0 mi SSE 16.1 mph - N/A   Scattered Clouds
8:44 AM 57.2 °F 41.0 °F 55% 29.78 in 12.0 mi SSE 17.3 mph - N/A   Scattered Clouds
9:17 AM 60.8 °F 41.0 °F 48% 30.25 in 12.0 mi SSE 18.4 mph - N/A   Scattered Clouds
9:20 AM 60.8 °F 41.0 °F 48% 30.24 in 12.0 mi SSE 19.6 mph - N/A   Scattered Clouds
9:45 AM 60.8 °F 39.2 °F 45% 30.25 in 12.0 mi SSE 19.6 mph - N/A   Scattered Clouds
10:43 AM 64.4 °F 39.2 °F 40% 30.26 in 12.0 mi SE 17.3 mph - N/A   Scattered Clouds
10:46 AM 64.4 °F 39.2 °F 40% 30.26 in 12.0 mi ESE 18.4 mph - N/A   Scattered Clouds
11:46 AM 68.0 °F 35.6 °F 30% 29.76 in 13.0 mi SSE 19.6 mph - N/A   Scattered Clouds
12:48 PM 68.0 °F 33.8 °F 28% 30.20 in 13.0 mi SSE 19.6 mph - N/A   Scattered Clouds
1:42 PM 69.8 °F 35.6 °F 28% 30.17 in 13.0 mi ESE 20.7 mph - N/A   Mostly Cloudy
2:45 PM 69.8 °F 35.6 °F 28% 29.61 in 13.0 mi SE 20.7 mph - N/A   Mostly Cloudy
3:50 PM 68.0 °F 37.4 °F 33% 30.14 in 13.0 mi South 20.7 mph - N/A   Mostly Cloudy
4:03 PM 68.0 °F 37.4 °F 33% 30.14 in 13.0 mi South 20.7 mph - N/A   Mostly Cloudy
4:45 PM 64.4 °F 37.4 °F 37% 30.16 in 10.0 mi SSE 20.7 mph - N/A   Mostly Cloudy
5:48 PM 64.4 °F 39.2 °F 40% 29.74 in 10.0 mi South 17.3 mph - N/A   Mostly Cloudy
6:44 PM 62.6 °F 41.0 °F 45% 30.18 in 10.0 mi South 17.3 mph - N/A   Mostly Cloudy
7:46 PM 60.8 °F 41.0 °F 48% 30.20 in 15.0 mi SSE 11.5 mph - N/A   Mostly Cloudy
8:44 PM 60.8 °F 41.0 °F 48% 30.23 in 15.0 mi SSE 12.7 mph - N/A   Scattered Clouds
8:49 PM 60.8 °F 41.0 °F 48% 29.76 in 15.0 mi SSE 12.7 mph - N/A   Scattered Clouds
9:45 PM 59.0 °F 42.8 °F 55% 30.24 in 15.0 mi SSE 10.4 mph - N/A   Scattered Clouds
10:46 PM 57.2 °F 42.8 °F 59% 30.24 in 15.0 mi East 9.2 mph - N/A   Scattered Clouds
11:45 PM 57.2 °F 42.8 °F 59% 29.77 in 15.0 mi Calm Calm - N/A   Mostly Cloudy